Terug naar catalogus

DMSP 5D-2 F13 DEB

ActiefPO
NORAD 42295·DEBRIS·🇺🇸 United States

Gelanceerd Mar 24, 1995 vanaf Vandenberg Space Force Base

Loading…

Volgende Passages (komende 24 uur)

TLE

VerouderendSource: Space-Track

Epoch: Sep 11, 2026, 05:00 UTC

1 42295U 95015HM  26254.20895238  .00074635  00000-0  51003-2 0  9994
2 42295  98.8502 343.3836 0010154 161.8645 198.2942 15.05772959589173

Volg DMSP 5D-2 F13 DEB in realtime met AllMySat

Download on the App Store